Regional Weather Roundup
Issued by NWS

Home | Current Version | Previous Version | Text Only | Print | Product List | Glossary On
Versions: 1 2 3 4 5 6 7 8 9 10 11 12 13 14 15 16 17 18 19 20 21 22 23 24 25 26 27 28 29 30 31 32 33 34 35 36 37 38 39 40 41 42 43 44 45 46 47 48 49 50
000
ASUS43 KLMK 142310
RWRKY
KENTUCKY REGIONAL WEATHER ROUNDUP
NATIONAL WEATHER SERVICE LOUISVILLE KY
600 PM EST SUN FEB 14 2016

NOTE "FAIR" INDICATES FEW OR NO CLOUDS BELOW 12,000 FEET
WITH NO SIGNIFICANT WEATHER AND/OR OBSTRUCTIONS TO VISIBILITY.

KYZ001>023-026-027-061>063-070>075-150000-
WESTERN AND SOUTH CENTRAL KENTUCKY

CITY           SKY/WX    TMP DP  RH WIND       PRES   REMARKS
PADUCAH        FRZ RAIN  29  25  85 SE6       30.02F FOG     WCI  23
HENDERSON      CLOUDY    25  19  80 E6        30.06F WCI  18
OWENSBORO      LGT SNOW  25  23  93 E8        30.08F VSB 1   WCI  16
HOPKINSVILLE   FRZ RAIN  28  25  86 SE15      30.00F WCI  17
BOWLING GREEN  FRZ RAIN  29  25  85 NE6       30.09R FOG     WCI  23
GLASGOW        MIX PCPN  28  25  91 N7        30.08R WCI  20
$$

KYZ024-025-028>034-038-045-046-053-150000-
NORTH CENTRAL KENTUCKY

CITY           SKY/WX    TMP DP  RH WIND       PRES   REMARKS
LOUISVILLE/SDF SNOW      22  18  85 E8        30.12F VSB 1/2 WCI  12
LOUISVILLE/LOU SNOW      21  18  88 E6        30.13F VSB 1/4 WCI  13
FORT KNOX      LGT SNOW  21  19  93 E8        30.07F VSB 1   WCI  12
$$

KYZ035>037-039>044-047>052-055>060-089>105-150000-
NORTHEAST KENTUCKY

CITY           SKY/WX    TMP DP  RH WIND       PRES   REMARKS
LEXINGTON      SNOW      21  17  84 E8        30.13S VSB 1/2 WCI  11
COVINGTON      LGT SNOW  18  14  84 E10       30.15F VSB 3/4 WCI   6
FRANKFORT      SNOW      20  16  84 E12       30.12F VSB 1/2 WCI   8
$$

KYZ054-064>069-076>088-106>120-150000-
SOUTHEAST KENTUCKY

CITY           SKY/WX    TMP DP  RH WIND       PRES   REMARKS
JACKSON        SNOW      20  17  88 VRB6      30.13F VSB 1/4 WCI  12
LONDON         SNOW      22  19  89 SE5       30.12F VSB 1/2 WCI  16
SOMERSET       LGT SNOW  23  23 100 E3        30.11F
MIDDLESBORO    LGT SNOW  22  21  96 CALM      30.18F VSB 3/4
MONTICELLO     FLURRIES  27  23  85 SE9       30.08F WCI  18
$$




USA.gov is the U.S. government's official web portal to all federal, state and local government web resources and services.